This is the latest recevied weather packets stored in our database for station/object WY1B. If no packets are shown the sender has not sent any weather packets the latest 10 day(s).
| Time | Temp. | Humidity | Pressure | Rain* | Wind** | Luminosity | Snow |
|---|---|---|---|---|---|---|---|
| 1787804348 | 37.78° C | 24% | 1003 hPa | 0 mm | - | 0 W/m² | - |
| 1787804043 | 37.78° C | 23% | 1002.8 hPa | 0 mm | - | 0 W/m² | - |
| 1787803738 | 37.22° C | 23% | 1002.5 hPa | 0 mm | - | 0 W/m² | - |
| 1787803437 | 37.22° C | 25% | 1002.7 hPa | 0 mm | - | 0 W/m² | - |
| 1787803136 | 37.22° C | 24% | 1002.6 hPa | 0 mm | - | 0 W/m² | - |
| 1787802832 | 37.78° C | 23% | 1002.4 hPa | 0 mm | - | 0 W/m² | - |
| 1787802530 | 37.78° C | 22% | 1002.3 hPa | 0 mm | - | 0 W/m² | - |
| 1787802230 | 37.78° C | 22% | 1002.3 hPa | 0 mm | - | 0 W/m² | - |
| 1787801926 | 37.78° C | 22% | 1002.3 hPa | 0 mm | - | 0 W/m² | - |
| 1787801626 | 37.78° C | 22% | 1002.1 hPa | 0 mm | - | 0 W/m² | - |
| 1787801326 | 37.78° C | 22% | 1001.7 hPa | 0 mm | - | 0 W/m² | - |
| 1787801024 | 38.33° C | 23% | 1002 hPa | 0 mm | - | 0 W/m² | - |
| 1787800720 | 38.33° C | 24% | 1001.9 hPa | 0 mm | - | 0 W/m² | - |
| 1787800415 | 38.33° C | 23% | 1002 hPa | 0 mm | - | 0 W/m² | - |
| 1787800110 | 38.33° C | 23% | 1001.8 hPa | 0 mm | - | 0 W/m² | - |
| 1787799809 | 38.89° C | 23% | 1001.8 hPa | 0 mm | - | 0 W/m² | - |
| 1787799505 | 38.89° C | 23% | 1001.5 hPa | 0 mm | - | 0 W/m² | - |
| 1787799200 | 38.89° C | 23% | 1001.6 hPa | 0 mm | - | 0 W/m² | - |
| 1787798900 | 39.44° C | 26% | 1001.6 hPa | 0 mm | - | 0 W/m² | - |
| 1787798594 | 39.44° C | 23% | 1001.5 hPa | 0 mm | - | 0 W/m² | - |
| 1787798289 | 40° C | 23% | 1001.5 hPa | 0 mm | - | 0 W/m² | - |
| 1787797988 | 40° C | 21% | 1001.3 hPa | 0 mm | - | 0 W/m² | - |
| 1787797684 | 40.56° C | 22% | 1001.3 hPa | 0 mm | - | 0 W/m² | - |
| 1787797378 | 40.56° C | 20% | 1001.3 hPa | 0 mm | - | 0 W/m² | - |
| 1787797074 | 41.11° C | 20% | 1001.5 hPa | 0 mm | - | 0 W/m² | - |
* Rain latest hour (hover to see other rain measurements)
** Current wind speed in m/s (hover to see current wind gust speed)